Temperature
15 14 14 14 14 14 14 13 13 12 12 12 11 11 11 12 11 11 11 11 11 11 11 11 11 11 11 11 11 11 11 11 12 11 11 12 12 12 12 11 11 12 12
14 14 14 14 14 14 13 13 13 12 11 11 11 11 11 11 11 11 11 11 11 11 11 11 11 11 11 11 11 11 11 11 11 10 10 10 11 12 12 12 12 11 11
14 13 14 14 14 13 13 12 12 11 10 10 10 10 10 11 11 11 11 11 11 11 10 10 10 10 11 11 11 11 10 10 10 10 10 10 10 11 11 11 11 11 11
14 13 13 13 13 13 12 11 11 11 10 10 10 10 9 9 10 10 10 10 10 10 10 10 10 10 10 10 10 10 9 9 9 9 9 9 9 9 9 10 10 11 11
13 13 13 13 13 12 11 11 11 10 10 10 9 9 9 9 9 9 9 9 9 9 9 9 9 9 9 9 9 9 9 9 8 8 8 9 9 8 8 8 8 9 9
13 13 13 13 13 12 11 10 10 10 10 9 9 9 9 9 9 9 9 9 9 9 9 9 9 9 9 9 9 9 9 8 8 8 8 8 8 7 7 8 8 9 9
13 13 13 13 12 11 11 10 10 10 10 9 9 9 9 9 9 9 9 9 8 8 8 8 8 8 8 8 8 8 8 8 8 8 7 8 7 7 7 7 8 8 8
13 13 13 12 11 11 11 10 10 10 10 9 9 9 8 8 8 8 8 8 8 8 8 8 8 8 8 8 8 8 8 8 8 8 8 7 7 7 7 7 7 7 7
12 12 12 12 12 11 11 10 10 10 9 9 8 8 8 8 8 8 8 8 8 7 7 7 7 7 7 8 8 8 8 8 8 8 8 7 7 7 7 7 6 6 7
12 12 12 12 12 11 11 10 10 9 9 8 8 8 8 8 7 7 7 7 7 7 7 7 7 7 7 7 7 7 7 7 7 7 7 7 7 7 6 6 6 6 6
13 12 12 12 12 11 10 10 9 9 9 8 7 7 7 7 7 7 7 7 7 7 7 6 6 6 7 7 7 7 7 7 7 7 6 6 6 6 6 6 6 6 6
12 11 11 12 11 11 10 9 9 9 9 8 7 7 6 6 6 6 6 6 6 6 5 5 6 6 6 6 6 6 7 6 6 6 6 6 6 6 5 5 5 5 5
12 12 11 11 11 11 9 8 8 9 8 7 6 6 6 5 5 5 5 5 5 4 4 4 4 4 4 5 5 5 6 6 6 6 6 5 5 5 5 5 5 5 5
11 12 11 10 10 9 8 8 8 7 7 7 6 5 5 4 4 3 3 2 2 2 1 1 1 2 2 3 3 4 5 5 5 5 5 5 5 5 5 5 5 5 5
11 11 10 8 8 7 7 7 6 7 6 5 5 4 3 2 2 1 1 -0 -1 -1 -1 -1 -0 0 1 2 2 3 3 4 4 4 4 4 3 4 4 4 4 4 4
10 9 7 7 7 7 6 6 5 5 5 4 3 2 2 1 0 -1 -3 -3 -2 -2 -2 -1 -1 -0 -0 0 1 1 2 2 2 2 2 2 2 3 3 3 3 2 2
8 7 5 4 4 5 4 4 4 4 3 3 2 1 -1 -1 -3 -4 -4 -4 -4 -3 -3 -2 -2 -1 -1 -1 -1 -1 0 0 1 1 1 1 1 1 1 1 0 1 0
4 5 4 4 4 4 4 3 3 2 1 -0 -1 -2 -3 -3 -4 -5 -5 -4 -4 -4 -3 -3 -3 -3 -3 -3 -3 -3 -2 -1 -1 -1 -1 -1 -1 -1 -1 -2 -2 -1 -0
2 1 0 1 3 3 3 3 1 0 -1 -2 -2 -3 -4 -4 -5 -5 -5 -5 -4 -4 -4 -4 -4 -4 -4 -4 -4 -5 -4 -4 -4 -4 -3 -3 -3 -3 -4 -3 -3 -3 -2
3 2 1 1 1 2 2 0 -0 -1 -2 -2 -3 -4 -4 -5 -6 -6 -6 -5 -5 -5 -5 -5 -5 -5 -5 -6 -6 -5 -6 -6 -6 -5 -5 -5 -5 -5 -5 -4 -4 -4 -3
2 1 0 -0 -0 -1 -1 -1 -2 -3 -3 -4 -4 -5 -5 -6 -6 -6 -6 -6 -6 -6 -6 -6 -6 -6 -6 -6 -7 -6 -7 -7 -7 -7 -7 -7 -6 -6 -6 -5 -5 -5 -4
2 1 -0 -1 -2 -4 -4 -3 -3 -4 -5 -5 -5 -5 -6 -7 -7 -7 -7 -7 -7 -7 -7 -7 -7 -7 -7 -7 -8 -8 -8 -8 -8 -8 -8 -8 -8 -7 -6 -5 -5 -5 -5
0 -1 -2 -3 -4 -5 -5 -4 -5 -5 -5 -6 -6 -7 -8 -8 -8 -8 -8 -8 -8 -8 -9 -9 -9 -9 -8 -8 -9 -9 -9 -9 -9 -10 -9 -9 -8 -7 -6 -6 -5 -5 -5
-1 -2 -3 -4 -5 -6 -6 -6 -5 -6 -6 -7 -8 -8 -8 -8 -9 -9 -9 -9 -9 -9 -10 -10 -10 -9 -9 -9 -10 -10 -10 -10 -10 -10 -9 -9 -8 -8 -7 -6 -6 -6 -6
-2 -3 -4 -5 -6 -6 -7 -7 -6 -7 -8 -8 -9 -9 -9 -9 -9 -9 -9 -9 -10 -11 -11 -11 -11 -11 -10 -10 -11 -11 -11 -11 -11 -10 -9 -9 -9 -8 -8 -7 -7 -7 -6
-4 -5 -6 -6 -7 -7 -7 -7 -7 -8 -9 -9 -9 -9 -9 -9 -9 -9 -9 -9 -10 -10 -10 -11 -11 -11 -11 -11 -12 -12 -12 -11 -11 -10 -10 -10 -10 -10 -10 -10 -9 -8 -8
Wind_Speed
7 7 8 9 8 7 7 6 6 7 5 3 3 3 4 3 3 4 5 5 4 4 3 3 4 3 1 2 2 2 4 4 3 5 7 8 8 10 10 8 8 10 10
7 8 7 7 7 5 4 5 6 6 4 2 1 1 2 2 2 3 4 4 5 5 5 4 4 3 2 3 2 2 3 3 4 5 4 6 7 10 10 11 12 10 7
12 9 7 7 7 5 2 3 4 5 5 5 3 3 3 3 4 4 4 5 4 4 3 5 5 5 3 3 3 2 3 4 3 7 6 4 5 3 5 10 12 11 10
11 11 9 8 7 5 4 1 2 4 4 6 5 4 2 2 3 3 5 6 5 4 4 5 4 2 1 2 3 4 3 4 4 3 6 9 7 5 5 3 6 10 11
13 12 11 10 9 7 6 4 1 1 2 4 4 3 2 2 3 3 5 6 6 5 4 4 3 3 1 1 1 2 3 2 3 4 4 4 4 7 5 3 2 5 7
11 11 9 8 7 6 5 4 3 4 3 2 3 3 4 5 4 5 5 5 5 5 5 3 1 2 3 3 3 3 3 4 4 5 5 3 3 5 6 9 10 8 4
10 10 9 8 7 7 7 6 6 6 4 4 4 4 5 5 6 6 4 4 4 4 7 6 4 3 4 5 5 5 5 5 5 6 5 4 5 4 6 10 6 5 4
9 9 10 9 9 9 8 8 7 4 3 5 6 5 4 3 3 4 3 4 4 5 6 7 7 7 7 7 7 6 7 6 7 8 7 5 6 5 4 6 5 5 6
6 7 9 10 10 9 8 7 6 2 1 4 5 6 5 4 4 6 5 5 5 6 8 8 8 9 8 8 7 6 8 7 7 8 8 5 5 5 5 4 5 7 6
7 9 10 9 9 7 5 4 4 4 3 5 5 5 7 8 8 8 8 8 8 8 10 10 10 10 9 9 8 7 8 7 7 6 7 6 5 5 5 4 5 6 9
8 10 11 10 9 7 6 5 4 6 7 7 7 9 10 10 10 9 9 9 9 10 10 10 10 10 9 9 8 8 9 9 8 7 7 8 6 4 5 5 5 5 6
8 9 13 12 7 7 7 5 6 7 8 7 7 8 8 8 9 9 9 10 10 10 10 10 10 10 10 9 9 10 10 9 9 9 7 7 4 4 3 4 5 6 7
10 12 13 12 10 8 7 5 7 8 7 7 7 7 7 7 7 7 8 10 10 11 9 8 8 9 9 9 9 9 10 10 9 8 6 5 2 2 2 4 5 5 6
12 14 8 7 8 9 7 6 7 6 7 8 7 6 6 7 7 7 7 9 11 11 10 9 9 9 8 7 6 8 9 7 6 4 2 2 3 3 4 4 5 6 6
12 10 6 10 10 9 7 6 6 7 8 6 5 4 4 5 7 7 7 8 10 10 11 11 10 9 7 6 9 9 8 8 8 6 5 4 6 6 7 7 6 6 6
6 5 7 11 10 8 6 6 6 5 4 4 4 5 5 6 7 9 9 8 8 9 9 10 9 8 7 12 14 11 8 9 8 8 9 8 7 7 11 13 14 14 11
7 11 10 8 7 6 5 5 4 4 5 6 6 5 5 7 7 8 9 8 8 7 8 9 9 10 13 18 19 16 10 9 9 10 10 10 11 12 9 12 15 16 20
12 9 6 5 4 4 6 6 6 6 6 6 6 6 6 6 7 8 8 9 8 8 8 9 11 11 14 19 18 16 9 8 8 8 8 8 9 11 15 13 13 13 14
7 6 4 1 4 6 5 6 6 6 6 6 6 6 6 6 6 7 8 8 7 7 8 9 10 11 12 18 18 15 8 8 8 8 8 10 10 18 22 16 14 14 14
10 8 5 1 3 4 5 5 5 7 7 7 7 6 7 7 6 6 7 7 7 7 7 6 8 11 10 17 20 17 10 10 9 8 9 16 18 23 25 19 15 16 16
7 8 7 5 3 3 4 5 7 7 7 7 6 6 7 7 5 6 7 6 6 7 7 7 7 8 11 16 20 20 12 11 11 10 10 12 23 25 25 23 16 19 22
10 9 7 6 6 4 4 5 6 6 7 7 6 6 7 7 7 6 6 6 6 6 6 6 5 5 8 14 18 21 18 16 11 10 10 13 24 24 24 19 21 27 23
8 8 8 7 6 4 4 5 5 6 6 6 6 6 6 7 7 6 6 5 5 5 5 5 5 5 5 9 17 19 20 20 14 12 17 20 22 20 16 20 23 19 13
9 9 8 7 5 5 6 4 5 6 5 5 5 5 6 7 7 6 5 5 5 5 5 6 6 6 6 8 8 8 11 15 14 11 14 18 17 14 15 16 14 11 12
8 7 7 6 5 5 5 5 6 6 4 4 5 5 5 5 5 5 5 5 5 5 5 4 4 6 7 12 17 14 11 10 13 13 9 9 9 10 11 11 12 12 13
8 7 7 5 4 5 5 5 6 5 4 4 5 4 4 4 4 4 6 8 9 11 10 10 9 8 12 18 19 19 19 18 17 10 8 9 10 11 12 13 14 14 14
Wind_Direction
187 158 145 134 111 63 35 19 8 356 355 1 5 346 325 325 321 308 298 297 306 319 318 302 288 289 279 279 279 265 263 261 247 253 260 256 247 244 239 236 236 231 223
170 174 153 120 104 93 46 18 12 4 4 350 314 273 298 325 340 348 354 336 305 293 295 305 309 316 316 308 287 216 223 230 213 244 272 273 257 238 236 233 233 233 227
174 170 154 140 125 109 79 22 8 15 22 18 6 2 358 351 356 353 348 343 336 328 307 289 284 299 334 342 345 312 284 277 233 219 239 254 261 301 245 235 233 232 226
172 169 163 159 150 154 168 141 19 17 20 30 36 25 354 313 308 308 317 325 341 351 349 341 329 303 328 339 333 334 311 299 294 274 248 254 237 250 280 296 271 250 240
177 173 174 168 158 162 180 192 204 341 7 20 27 14 325 275 283 297 318 321 322 333 343 352 349 317 272 251 277 305 303 276 279 280 285 289 261 246 256 265 323 313 279
181 178 176 157 155 169 197 207 214 243 256 302 324 326 294 289 300 309 317 314 307 307 312 324 321 259 262 263 254 248 248 245 244 264 277 271 283 277 261 251 235 231 218
180 173 168 165 174 194 212 213 213 240 263 292 294 293 291 288 294 291 285 302 301 298 308 319 310 285 266 260 256 251 249 243 239 251 261 255 249 263 284 285 266 213 191
187 182 182 182 194 205 209 209 212 237 302 303 294 285 284 281 279 274 278 276 271 281 285 290 288 282 274 266 259 253 258 249 247 251 249 258 263 260 266 275 266 246 227
215 218 209 204 204 206 203 201 186 166 320 321 303 296 317 330 316 305 298 289 287 282 286 289 287 285 281 268 257 249 258 258 258 255 253 243 252 259 263 252 253 260 265
245 237 233 226 216 205 187 170 140 114 51 14 360 4 10 6 358 356 347 340 330 328 327 318 306 297 289 280 267 257 262 259 258 250 257 257 250 256 265 250 242 238 260
255 257 252 235 212 182 156 134 100 79 59 40 31 36 30 25 23 19 6 354 350 349 343 330 320 308 296 287 279 270 269 265 263 255 247 258 262 256 271 269 253 243 241
263 261 254 238 201 163 137 123 102 85 66 51 43 41 37 28 19 5 354 349 347 342 333 329 325 321 316 308 293 282 275 262 258 257 251 257 267 283 289 288 275 267 257
284 285 274 226 177 147 126 111 81 70 65 59 52 40 25 16 2 350 342 342 334 322 315 321 323 322 319 319 317 303 285 270 259 252 240 244 228 270 274 284 286 282 279
277 287 271 176 139 117 108 88 75 72 66 56 50 34 19 0 346 337 338 341 331 325 323 318 314 309 303 310 345 343 327 307 302 299 272 263 257 261 270 266 268 278 279
283 289 177 137 116 100 86 76 73 65 61 63 61 37 14 355 342 333 338 336 330 332 333 325 321 318 322 356 21 20 4 15 14 8 355 335 305 303 307 304 287 276 275
340 15 123 117 108 101 88 75 67 67 73 69 49 24 14 4 355 345 346 337 323 322 328 321 326 332 355 11 20 32 24 24 14 4 351 336 307 307 316 316 310 301 290
96 90 69 64 68 69 91 96 79 54 47 36 24 15 3 6 355 349 345 332 323 326 338 339 354 10 20 22 29 33 25 22 12 4 353 344 345 336 317 310 308 299 291
32 42 82 101 105 101 74 61 56 49 45 24 7 2 5 351 356 354 344 339 342 350 358 7 15 26 18 15 19 24 21 18 359 346 337 331 330 331 324 316 305 296 290
42 18 2 20 76 65 73 77 63 54 41 15 356 350 348 334 349 355 344 345 352 10 11 18 22 25 10 6 10 17 6 0 345 330 327 336 334 327 326 319 308 303 295
177 171 160 109 56 62 69 73 58 40 21 357 343 346 346 329 340 5 354 352 7 16 7 10 26 19 6 359 360 8 3 357 347 340 347 344 337 332 329 324 314 306 297
166 149 139 121 76 38 70 75 52 25 353 342 346 350 346 332 3 19 14 6 14 14 10 8 8 9 3 356 353 353 359 352 344 338 337 335 333 331 328 324 315 303 301
159 153 139 115 77 36 47 65 44 6 347 350 358 353 347 350 8 23 17 14 8 9 5 353 347 355 356 349 346 343 343 344 343 334 328 329 328 328 328 325 320 319 315
149 141 131 113 101 77 47 57 25 1 355 1 359 354 355 10 8 8 12 8 4 352 346 342 340 341 348 336 331 338 342 341 339 328 330 332 329 330 327 325 327 328 322
142 136 131 124 112 85 57 27 24 6 2 7 358 4 12 21 12 6 4 6 357 342 345 344 339 337 336 318 313 330 340 343 336 332 339 335 330 330 330 329 327 325 318
106 118 117 105 103 86 59 18 24 16 4 9 8 15 27 19 5 358 357 360 346 343 344 328 325 325 323 321 335 337 337 337 333 342 341 334 335 334 333 330 327 324 321
107 101 98 106 105 81 54 22 20 17 13 21 19 13 24 9 5 356 355 1 360 357 356 346 336 328 320 326 334 334 336 337 343 346 337 334 334 331 329 328 325 322 319
Height
1472 1473 1473 1473 1475 1476 1477 1475 1473 1471 1469 1469 1468 1467 1467 1466 1464 1464 1463 1462 1462 1461 1460 1460 1461 1461 1461 1462 1461 1461 1461 1461 1462 1462 1460 1460 1460 1461 1462 1463 1464 1464 1465
1468 1468 1469 1470 1471 1472 1472 1472 1470 1468 1466 1466 1466 1466 1466 1465 1464 1463 1463 1462 1461 1459 1459 1459 1459 1459 1459 1458 1457 1457 1456 1456 1457 1457 1456 1454 1453 1451 1454 1455 1456 1457 1459
1461 1464 1467 1468 1469 1469 1469 1468 1466 1465 1464 1464 1463 1464 1464 1464 1463 1462 1461 1460 1459 1458 1457 1457 1457 1457 1457 1456 1455 1455 1453 1452 1452 1452 1452 1450 1446 1445 1445 1447 1449 1450 1451
1458 1459 1463 1466 1467 1468 1468 1468 1465 1465 1464 1462 1462 1461 1462 1462 1462 1461 1460 1459 1458 1456 1455 1455 1455 1455 1454 1454 1453 1453 1452 1451 1450 1449 1447 1447 1444 1443 1439 1440 1442 1442 1443
1452 1455 1459 1462 1463 1465 1466 1465 1464 1464 1462 1461 1461 1461 1461 1460 1459 1459 1458 1458 1457 1455 1453 1452 1452 1452 1452 1451 1450 1450 1450 1449 1447 1446 1444 1441 1439 1439 1439 1435 1437 1439 1439
1451 1454 1456 1459 1461 1462 1463 1462 1461 1462 1460 1459 1459 1459 1459 1458 1457 1455 1455 1455 1454 1453 1451 1449 1448 1448 1448 1447 1447 1447 1447 1445 1444 1442 1440 1439 1437 1437 1435 1432 1429 1430 1432
1449 1451 1453 1455 1458 1459 1460 1460 1459 1459 1458 1457 1456 1456 1455 1454 1453 1452 1451 1450 1451 1449 1447 1446 1445 1444 1444 1443 1442 1442 1442 1442 1440 1439 1437 1435 1433 1433 1431 1429 1425 1421 1421
1446 1448 1451 1454 1456 1456 1456 1457 1455 1454 1454 1455 1454 1452 1451 1449 1449 1448 1447 1447 1447 1445 1443 1442 1441 1440 1439 1438 1437 1437 1436 1436 1435 1434 1432 1430 1429 1428 1427 1425 1422 1417 1413
1448 1450 1451 1452 1452 1453 1453 1453 1450 1450 1451 1451 1450 1448 1447 1446 1445 1444 1443 1442 1442 1441 1439 1437 1436 1435 1434 1432 1431 1431 1430 1429 1428 1427 1426 1424 1423 1423 1422 1420 1419 1418 1412
1449 1449 1449 1449 1449 1449 1449 1449 1447 1447 1447 1446 1445 1442 1441 1441 1439 1438 1437 1437 1436 1435 1433 1431 1430 1429 1428 1427 1426 1425 1424 1422 1421 1421 1420 1418 1416 1416 1416 1415 1414 1411 1409
1446 1447 1446 1445 1445 1444 1445 1446 1444 1442 1442 1442 1440 1438 1437 1437 1435 1434 1433 1431 1429 1428 1427 1425 1424 1422 1421 1420 1418 1417 1416 1415 1414 1413 1412 1411 1410 1409 1408 1408 1408 1405 1403
1440 1441 1442 1441 1440 1439 1440 1441 1438 1437 1437 1437 1437 1435 1434 1431 1429 1427 1426 1424 1421 1420 1419 1418 1417 1415 1413 1412 1410 1409 1408 1407 1406 1406 1405 1404 1403 1403 1402 1402 1401 1399 1398
1432 1431 1429 1430 1431 1431 1434 1433 1431 1433 1434 1433 1431 1430 1427 1424 1422 1420 1418 1415 1413 1412 1411 1409 1407 1406 1405 1403 1401 1399 1399 1398 1399 1399 1398 1397 1396 1396 1396 1395 1394 1392 1391
1421 1419 1417 1419 1421 1423 1426 1427 1427 1428 1427 1427 1425 1423 1419 1417 1414 1412 1409 1407 1406 1403 1400 1399 1398 1397 1397 1395 1393 1392 1390 1390 1390 1390 1390 1390 1390 1389 1389 1387 1386 1386 1384
1415 1412 1411 1413 1414 1417 1421 1423 1422 1422 1422 1421 1418 1416 1412 1410 1408 1406 1404 1403 1402 1399 1396 1394 1391 1391 1391 1389 1386 1385 1384 1383 1383 1383 1383 1383 1383 1382 1381 1379 1377 1377 1376
1409 1408 1407 1408 1410 1413 1417 1419 1418 1417 1416 1414 1411 1408 1406 1405 1403 1401 1401 1401 1399 1396 1393 1392 1388 1387 1386 1384 1382 1379 1379 1378 1378 1377 1377 1376 1376 1374 1373 1371 1370 1369 1369
1409 1405 1411 1412 1412 1412 1414 1414 1413 1411 1409 1408 1406 1405 1403 1401 1399 1399 1400 1399 1396 1393 1391 1390 1387 1385 1382 1381 1378 1376 1374 1373 1372 1371 1370 1368 1367 1366 1364 1363 1362 1361 1360
1416 1415 1414 1416 1414 1412 1410 1409 1408 1407 1406 1405 1405 1403 1401 1399 1397 1398 1399 1397 1394 1392 1390 1389 1386 1383 1381 1380 1378 1373 1370 1369 1368 1366 1363 1362 1360 1358 1356 1354 1352 1350 1349
1422 1421 1420 1416 1411 1408 1406 1406 1406 1404 1403 1402 1402 1401 1399 1397 1396 1396 1397 1395 1393 1391 1389 1388 1385 1381 1379 1378 1376 1371 1367 1365 1362 1361 1358 1356 1353 1351 1349 1347 1343 1340 1338
1417 1417 1417 1414 1410 1407 1406 1405 1403 1401 1400 1399 1399 1398 1396 1395 1394 1394 1393 1392 1390 1389 1387 1385 1382 1379 1377 1375 1373 1370 1365 1362 1358 1356 1353 1350 1347 1344 1342 1339 1336 1331 1328
1414 1412 1411 1409 1408 1407 1404 1402 1399 1399 1399 1398 1397 1396 1395 1394 1393 1391 1390 1388 1386 1386 1383 1382 1380 1376 1373 1371 1369 1367 1363 1359 1355 1352 1347 1344 1341 1339 1336 1332 1329 1325 1322
1407 1406 1406 1405 1402 1402 1402 1399 1397 1397 1397 1396 1395 1394 1393 1392 1390 1388 1387 1386 1383 1382 1380 1378 1376 1373 1370 1367 1365 1363 1361 1358 1353 1348 1344 1340 1336 1333 1330 1326 1322 1318 1313
1403 1403 1401 1399 1398 1399 1401 1398 1395 1395 1395 1394 1393 1392 1390 1389 1387 1386 1384 1383 1381 1379 1377 1375 1372 1368 1365 1363 1361 1358 1355 1352 1348 1343 1340 1335 1331 1327 1323 1320 1315 1310 1304
1397 1397 1397 1396 1396 1396 1397 1397 1393 1393 1392 1392 1391 1388 1387 1386 1384 1384 1382 1380 1379 1377 1375 1372 1369 1365 1362 1360 1357 1353 1349 1345 1341 1337 1332 1329 1326 1322 1318 1313 1308 1303 1298
1394 1394 1393 1394 1395 1394 1395 1395 1392 1391 1391 1389 1388 1386 1385 1384 1383 1381 1379 1378 1377 1375 1373 1370 1367 1364 1360 1358 1356 1352 1347 1342 1338 1333 1328 1324 1320 1315 1310 1306 1301 1296 1291
1392 1392 1392 1393 1395 1393 1393 1392 1389 1388 1389 1388 1386 1385 1384 1383 1382 1380 1378 1376 1375 1372 1369 1367 1365 1362 1359 1357 1353 1349 1346 1341 1336 1331 1326 1321 1316 1311 1306 1300 1295 1291 1286